SCP
0 0 0 0 0 0 0 0 0 0 0 0 0 0 0 0 0 0 0 0 0 0 0 0 0 0 0 0 0 0 0 0 0 0 0 0 0 0 0 0 0 0 0
0 0 0 0 0 0 0 0 0 0 0 0 0 0 0 0 0 0 0 0 0 0 0 0 0 0 0 0 0 0 0 0 0 0 0 0 0 0 0 0 0 0 0
0 0 0 0 0 0 0 0 0 0 0 0 0 0 0 0 0 0 0 0 0 0 0 0 0 0 0 0 0 0 0 0 0 0 0 0 0 0 0 0 0 0 0
0 0 0 0 0 0 0 0 0 0 0 0 0 0 0 0 0 0 0 0 0 0 0 0 0 0 0 0 0 0 0 0 0 0 0 0 0 0 0 0 0 0 0
0 0 0 0 0 0 0 0 0 0 0 0 0 0 0 0 0 0 0 0 0 0 0 0 0 0 0 0 0 0 -0 0 0 0 0 0 0 0 0 0 0 0 0
0 0 0 0 0 0 0 0 0 0 0 0 0 0 0 0 0 0 0 0 0 0 0 0 0 0 0 -0 -0 0 0 0 0 0 0 0 0 0 0 0 0 0 0
0 0 0 0 0 0 0 0 0 0 0 0 0 0 0 0 0 0 0 0 0 0 0 0 0 0 0 0 0 0 0 0 0 0 0 0 0 0 0 0 0 0 0
0 0 0 0 0 0 0 0 0 0 0 0 0 0 0 0 0 -0 -0 0 0 0 0 0 0 0 0 0 0 0 0 0 0 0 0 0 0 0 0 0 0 0 0
0 0 0 0 0 0 0 0 0 0 0 0 0 0 0 0 0 -0 -0 0 0 0 0 0 0 0 0 0 0 0 0 0 0 0 0 0 0 0 0 0 0 0 0
0 0 0 0 0 0 0 0 0 0 0 0 0 0 0 0 -0 -0 -0 0 0 0 0 0 0 0 0 0 0 0 0 0 0 0 0 0 0 0 0 0 0 0 0
0 0 0 0 0 0 0 0 0 0 0 0 0 0 0 0 0 -0 -0 -0 0 0 0 0 0 0 -0 0 0 0 0 0 0 0 0 0 0 0 0 0 0 0 0
0 0 0 0 0 0 0 0 0 0 0 0 0 0 0 0 -0 -0 -0 -0 -0 0 0 0 0 -0 0 0 0 0 0 0 0 0 0 0 0 0 0 0 0 0 0
0 0 0 0 0 0 0 0 0 0 0 0 0 0 0 0 0 -0 -0 -0 -0 0 0 0 -0 -0 0 0 0 -0 -0 0 0 0 0 0 0 0 0 0 0 0 0
0 0 0 0 0 0 0 0 0 0 0 0 0 0 0 0 0 0 -0 -0 -0 -0 0 0 0 0 0 0 0 0 0 0 0 0 0 0 0 0 0 0 0 0 0
0 0 0 0 0 0 0 0 0 0 0 0 0 0 0 0 0 -0 -0 0 0 -0 0 0 0 0 0 0 0 0 0 0 0 0 0 0 0 0 0 0 0 0 0
0 0 0 0 0 0 0 0 0 0 0 0 0 0 0 0 -0 -0 -0 -0 -0 -0 0 0 0 0 0 0 0 0 0 0 0 0 0 0 0 0 0 0 0 0 0
0 0 0 0 0 0 0 0 0 0 0 0 0 0 0 0 -0 -0 -0 -0 -0 0 0 0 0 0 0 0 0 0 0 0 0 0 0 0 0 0 0 0 0 0 0
0 0 0 0 0 0 0 0 0 0 0 0 0 0 0 0 -0 -0 -0 -0 -0 0 0 0 0 0 0 0 0 0 0 0 0 0 0 0 0 0 0 0 0 0 0
0 0 0 0 0 0 0 0 0 0 0 0 0 0 0 0 0 0 -0 0 0 0 0 0 0 0 0 0 0 0 0 0 0 0 0 0 0 0 0 0 0 0 0
0 0 0 0 0 0 0 0 0 0 0 0 0 0 0 0 0 0 0 -0 0 0 0 0 0 0 0 0 0 0 0 0 0 0 0 0 0 0 0 0 0 0 0
0 0 0 0 0 0 0 0 0 0 0 0 0 0 0 0 0 0 0 -0 -0 0 -0 0 0 0 0 0 0 0 0 0 0 0 0 0 0 0 0 0 0 0 0
0 0 0 0 0 0 0 0 0 0 0 0 0 0 0 0 0 0 0 0 -0 -0 0 -0 -0 -0 -0 0 0 -0 -0 -0 -0 -0 -0 -0 -0 -0 -0 -0 -0 -0 -0
0 0 0 0 0 0 0 0 0 0 0 0 0 0 0 0 0 0 0 0 0 0 0 0 0 0 0 0 0 0 0 0 -0 -0 -0 -0 -0 -0 -0 -0 -0 -0 -0
0 0 0 0 0 0 0 0 0 0 0 0 0 0 0 0 0 0 0 0 0 0 0 0 -0 0 0 0 0 0 -0 -0 -0 -0 -0 -0 -0 -0 -0 -0 -0 -0 -0
0 0 0 0 0 0 0 0 0 0 0 0 0 0 0 0 0 0 0 0 0 0 0 0 0 0 0 0 0 0 -0 0 -0 -0 -0 -0 -0 -0 -0 -0 -0 -0 -0
0 0 0 0 0 0 0 0 0 0 0 0 0 0 0 0 0 0 0 0 0 0 0 0 0 0 0 0 0 0 0 0 0 0 -0 0 0 0 0 0 0 0 0
Wind_Speed_500mb
68 68 63 56 57 56 56 58 58 60 62 64 65 66 66 65 63 63 64 65 62 61 61 62 60 59 61 63 64 67 64 66 64 50 41 48 53 53 60 65 69 73 78
63 62 60 61 59 58 60 61 60 63 65 65 66 67 69 67 63 65 66 67 66 65 61 63 66 61 61 63 63 59 62 57 54 50 41 44 50 40 45 48 48 46 46
62 63 66 62 59 61 62 62 63 67 68 70 72 67 71 62 67 69 69 70 64 61 60 67 63 62 70 62 62 57 58 56 50 43 45 43 53 51 46 44 43 38 35
69 74 75 71 67 64 63 66 67 70 74 75 71 68 69 70 68 67 62 60 64 64 65 65 64 64 62 63 61 50 51 45 38 32 27 33 29 37 44 37 28 29 24
75 79 80 79 74 71 68 72 75 72 71 68 69 67 65 64 61 57 61 65 66 66 67 66 64 59 60 63 63 57 55 46 35 28 27 24 13 18 11 17 14 24 27
78 80 80 82 86 88 88 79 74 69 67 64 62 60 60 57 53 55 61 65 67 67 66 60 54 55 55 61 50 50 53 43 35 29 27 26 24 22 24 21 28 26 20
79 80 83 84 87 88 86 81 77 65 63 62 59 58 63 57 56 60 56 58 61 55 53 51 52 55 54 56 29 31 34 38 43 40 33 28 29 29 34 24 22 21 14
80 81 83 84 86 84 79 74 72 63 65 62 66 59 54 50 50 50 53 56 50 46 53 44 49 47 43 33 25 28 28 21 41 29 35 30 19 17 20 21 23 21 23
79 82 83 83 82 77 73 70 64 65 62 61 54 49 54 51 48 50 51 50 53 54 42 40 40 41 34 23 21 18 18 19 22 19 16 19 18 19 18 22 23 19 16
76 80 81 78 73 69 68 67 64 56 53 51 51 53 51 54 55 49 51 52 56 46 46 36 36 33 24 18 8 14 16 17 18 20 19 20 23 25 26 29 22 20 20
70 77 77 69 67 62 64 63 61 57 55 51 57 56 57 60 57 50 52 54 45 51 41 39 39 33 28 20 18 20 18 18 20 19 22 21 19 21 21 22 22 22 18
75 74 70 63 62 60 62 60 56 51 50 55 61 60 58 59 51 49 54 57 44 42 43 38 39 42 29 19 20 26 15 17 21 23 24 25 21 18 19 20 20 23 25
73 71 67 62 61 60 58 58 56 50 50 56 58 61 62 61 52 57 59 51 48 35 32 40 39 30 26 12 14 16 23 25 28 29 28 24 19 18 21 24 27 27 27
71 69 64 62 63 59 56 54 55 50 50 60 61 60 60 57 57 63 61 65 43 46 44 38 41 18 16 13 24 20 17 27 31 23 17 14 12 14 16 16 19 19 19
68 66 62 61 61 62 59 60 57 51 46 56 55 54 57 55 54 53 51 55 45 46 40 33 26 23 18 21 31 32 27 22 16 11 7 5 7 11 16 17 19 20 21
67 65 62 62 61 61 66 70 63 60 53 45 43 44 48 43 47 48 51 48 43 37 34 29 21 17 17 15 16 17 16 13 8 3 5 9 13 16 19 21 22 22 23
64 62 61 59 60 64 67 69 79 73 66 60 48 45 41 45 43 43 46 43 34 30 24 21 18 15 11 8 5 2 4 6 9 12 15 18 20 20 22 23 23 24 25
62 61 60 59 60 64 66 68 72 76 81 76 60 48 43 42 45 39 41 37 28 23 22 21 18 16 14 12 12 13 15 17 18 17 18 20 21 23 25 26 26 28 30
62 59 58 57 59 63 66 69 71 73 72 71 69 59 46 48 38 43 33 32 29 26 25 22 21 19 16 15 16 16 16 17 18 18 20 21 24 26 28 30 32 34 36
61 58 59 61 61 64 67 70 70 70 69 68 65 63 56 61 59 44 35 32 30 28 27 26 23 22 21 19 19 20 20 21 22 23 24 26 28 31 32 34 36 38 40
61 61 60 62 64 66 67 68 68 67 67 66 62 57 48 51 46 42 39 32 30 31 31 29 27 24 24 25 25 25 25 24 26 28 30 31 34 35 36 38 39 41 43
62 62 64 66 66 66 65 65 67 66 65 64 63 59 51 48 47 45 41 37 33 30 28 31 32 30 29 29 30 31 31 30 29 32 34 35 37 39 39 41 41 41 43
64 67 67 66 65 66 66 66 67 66 65 63 61 61 57 54 50 47 44 40 36 33 30 30 33 33 33 35 36 37 38 35 34 36 38 38 39 39 40 40 39 39 39
68 68 68 68 67 66 67 67 68 65 63 63 62 60 56 54 53 51 47 41 36 32 29 29 32 34 35 36 38 39 40 37 38 37 39 40 39 36 37 37 36 35 35
67 69 69 69 68 68 70 69 68 65 64 63 62 58 55 55 57 55 50 44 39 34 29 26 25 26 29 32 33 34 35 35 36 35 36 37 34 31 30 32 30 30 29
69 69 70 71 71 71 71 70 67 65 65 64 60 56 57 59 60 59 55 51 46 39 32 27 23 22 23 23 24 27 29 30 29 27 27 26 23 22 23 25 25 29 31
Wind_Direction_500mb
324 323 323 322 320 317 315 313 310 308 307 305 302 300 298 296 296 295 294 293 292 289 284 284 283 283 283 287 288 278 278 278 272 280 273 275 273 252 227 213 205 202 206
327 327 325 323 321 319 317 315 313 309 309 308 306 298 298 292 294 295 295 295 291 289 285 285 287 288 287 289 284 277 277 275 273 275 271 266 261 246 211 203 200 197 195
332 329 328 325 322 319 318 316 312 311 310 306 307 300 298 292 295 294 294 294 291 286 284 285 286 288 291 288 283 278 273 271 265 264 269 258 237 226 215 201 198 199 206
334 333 331 327 324 321 320 316 315 313 309 308 307 301 296 295 294 295 296 294 290 286 284 285 287 285 289 288 288 274 275 265 256 254 248 239 205 191 198 197 196 209 225
335 332 331 329 327 325 323 319 318 317 314 312 309 305 301 299 298 298 298 297 297 296 288 286 286 287 293 284 286 268 270 257 250 237 236 242 218 222 197 196 187 203 205
334 333 333 334 332 331 327 326 322 321 319 318 316 313 310 306 302 305 304 300 297 294 292 293 294 297 298 294 277 261 260 248 241 228 226 230 233 230 225 227 229 230 226
337 338 338 335 334 332 332 332 332 326 324 324 320 317 319 314 310 311 309 305 303 298 294 298 303 309 304 303 254 255 242 244 242 227 219 215 215 224 229 213 198 206 205
340 340 339 337 335 336 337 337 337 330 325 330 323 322 329 325 319 320 318 314 309 300 307 310 306 318 300 312 253 235 235 223 223 231 229 228 214 206 218 214 204 196 212
340 341 341 340 339 341 342 343 336 331 332 330 331 341 343 340 329 325 325 322 323 328 319 318 322 321 307 332 230 218 225 233 241 229 206 204 207 216 222 212 205 196 194
339 340 342 343 343 344 346 345 343 335 335 333 342 350 348 345 336 330 329 331 330 331 335 321 316 327 309 310 194 209 209 210 222 231 230 229 227 225 227 233 209 191 197
338 341 343 345 345 345 342 346 341 341 342 351 346 350 347 342 339 335 335 337 335 336 334 331 324 321 334 275 256 249 236 223 217 210 198 200 193 196 196 193 197 202 222
341 342 344 348 347 343 344 344 343 337 337 340 340 341 343 345 341 342 344 343 346 336 337 337 323 317 323 271 256 228 197 202 195 184 186 201 209 214 223 230 237 243 250
341 344 346 348 349 347 347 345 342 340 335 337 339 339 340 346 351 353 351 343 341 353 343 339 336 324 305 275 232 214 190 185 175 178 189 194 198 216 233 243 248 248 246
343 345 345 345 346 348 348 350 343 337 333 337 333 333 334 341 345 348 340 343 338 339 331 342 348 339 323 130 164 181 167 171 167 168 180 206 233 248 250 245 245 247 249
345 344 343 343 344 345 345 346 346 346 331 324 326 327 329 330 334 333 333 343 343 339 332 340 346 22 70 105 120 131 135 137 139 146 165 218 263 273 272 269 264 265 264
344 343 343 342 342 343 343 342 349 347 346 335 325 324 322 323 326 331 331 331 333 329 338 339 343 357 33 66 94 105 125 135 146 199 264 273 273 270 267 270 270 268 269
343 343 341 342 340 341 341 341 340 346 351 352 345 332 331 325 329 331 333 330 338 337 337 337 344 344 338 342 359 354 288 280 282 283 283 281 278 277 275 273 273 276 276
346 346 343 340 340 341 340 341 342 342 343 346 351 343 335 334 334 332 336 330 336 342 342 341 340 337 333 322 307 296 291 289 287 284 279 278 278 277 277 277 277 277 277
347 346 342 341 342 341 343 342 343 342 342 343 346 350 354 354 340 333 337 340 338 335 331 329 325 322 318 311 302 295 291 288 286 285 281 279 277 276 278 279 279 282 285
347 348 346 345 344 345 345 344 343 343 343 344 347 346 351 345 330 338 339 335 334 328 322 317 313 310 307 302 294 288 286 286 286 285 283 283 282 281 283 284 284 286 286
349 350 347 349 348 346 345 345 344 345 345 346 348 347 334 326 335 339 336 330 324 322 317 310 304 299 295 294 293 291 288 287 286 285 284 283 283 283 283 283 284 285 287
352 351 352 351 349 347 347 347 348 348 349 348 350 352 349 348 343 340 338 333 326 319 312 303 299 295 291 288 285 284 284 285 285 284 283 284 283 284 284 283 284 284 284
356 355 353 351 350 350 350 351 351 351 352 351 351 351 352 350 348 346 341 337 330 322 313 303 295 290 285 282 280 280 281 282 282 282 284 283 282 281 280 281 281 281 282
359 356 354 353 353 352 353 353 355 354 354 353 352 352 352 352 352 352 349 344 338 330 320 306 295 289 284 279 277 276 278 279 278 279 281 281 282 280 277 275 278 281 282
360 358 357 356 355 356 357 356 355 355 355 355 354 355 355 355 356 356 355 352 348 343 337 324 309 295 285 280 278 276 275 275 277 278 277 277 277 274 272 275 279 280 279
3 360 359 360 360 360 357 356 358 358 357 357 359 359 357 356 357 360 1 0 357 354 348 341 331 314 302 292 282 277 276 275 274 273 272 271 270 271 274 278 280 282 287
Wind_Speed_850mb
68 68 63 56 57 56 56 58 58 60 62 64 65 66 66 65 63 63 64 65 62 61 61 62 60 59 61 63 64 67 64 66 64 50 41 48 53 53 60 65 69 73 78
63 62 60 61 59 58 60 61 60 63 65 65 66 67 69 67 63 65 66 67 66 65 61 63 66 61 61 63 63 59 62 57 54 50 41 44 50 40 45 48 48 46 46
62 63 66 62 59 61 62 62 63 67 68 70 72 67 71 62 67 69 69 70 64 61 60 67 63 62 70 62 62 57 58 56 50 43 45 43 53 51 46 44 43 38 35
69 74 75 71 67 64 63 66 67 70 74 75 71 68 69 70 68 67 62 60 64 64 65 65 64 64 62 63 61 50 51 45 38 32 27 33 29 37 44 37 28 29 24
75 79 80 79 74 71 68 72 75 72 71 68 69 67 65 64 61 57 61 65 66 66 67 66 64 59 60 63 63 57 55 46 35 28 27 24 13 18 11 17 14 24 27
78 80 80 82 86 88 88 79 74 69 67 64 62 60 60 57 53 55 61 65 67 67 66 60 54 55 55 61 50 50 53 43 35 29 27 26 24 22 24 21 28 26 20
79 80 83 84 87 88 86 81 77 65 63 62 59 58 63 57 56 60 56 58 61 55 53 51 52 55 54 56 29 31 34 38 43 40 33 28 29 29 34 24 22 21 14
80 81 83 84 86 84 79 74 72 63 65 62 66 59 54 50 50 50 53 56 50 46 53 44 49 47 43 33 25 28 28 21 41 29 35 30 19 17 20 21 23 21 23
79 82 83 83 82 77 73 70 64 65 62 61 54 49 54 51 48 50 51 50 53 54 42 40 40 41 34 23 21 18 18 19 22 19 16 19 18 19 18 22 23 19 16
76 80 81 78 73 69 68 67 64 56 53 51 51 53 51 54 55 49 51 52 56 46 46 36 36 33 24 18 8 14 16 17 18 20 19 20 23 25 26 29 22 20 20
70 77 77 69 67 62 64 63 61 57 55 51 57 56 57 60 57 50 52 54 45 51 41 39 39 33 28 20 18 20 18 18 20 19 22 21 19 21 21 22 22 22 18
75 74 70 63 62 60 62 60 56 51 50 55 61 60 58 59 51 49 54 57 44 42 43 38 39 42 29 19 20 26 15 17 21 23 24 25 21 18 19 20 20 23 25
73 71 67 62 61 60 58 58 56 50 50 56 58 61 62 61 52 57 59 51 48 35 32 40 39 30 26 12 14 16 23 25 28 29 28 24 19 18 21 24 27 27 27
71 69 64 62 63 59 56 54 55 50 50 60 61 60 60 57 57 63 61 65 43 46 44 38 41 18 16 13 24 20 17 27 31 23 17 14 12 14 16 16 19 19 19
68 66 62 61 61 62 59 60 57 51 46 56 55 54 57 55 54 53 51 55 45 46 40 33 26 23 18 21 31 32 27 22 16 11 7 5 7 11 16 17 19 20 21
67 65 62 62 61 61 66 70 63 60 53 45 43 44 48 43 47 48 51 48 43 37 34 29 21 17 17 15 16 17 16 13 8 3 5 9 13 16 19 21 22 22 23
64 62 61 59 60 64 67 69 79 73 66 60 48 45 41 45 43 43 46 43 34 30 24 21 18 15 11 8 5 2 4 6 9 12 15 18 20 20 22 23 23 24 25
62 61 60 59 60 64 66 68 72 76 81 76 60 48 43 42 45 39 41 37 28 23 22 21 18 16 14 12 12 13 15 17 18 17 18 20 21 23 25 26 26 28 30
62 59 58 57 59 63 66 69 71 73 72 71 69 59 46 48 38 43 33 32 29 26 25 22 21 19 16 15 16 16 16 17 18 18 20 21 24 26 28 30 32 34 36
61 58 59 61 61 64 67 70 70 70 69 68 65 63 56 61 59 44 35 32 30 28 27 26 23 22 21 19 19 20 20 21 22 23 24 26 28 31 32 34 36 38 40
61 61 60 62 64 66 67 68 68 67 67 66 62 57 48 51 46 42 39 32 30 31 31 29 27 24 24 25 25 25 25 24 26 28 30 31 34 35 36 38 39 41 43
62 62 64 66 66 66 65 65 67 66 65 64 63 59 51 48 47 45 41 37 33 30 28 31 32 30 29 29 30 31 31 30 29 32 34 35 37 39 39 41 41 41 43
64 67 67 66 65 66 66 66 67 66 65 63 61 61 57 54 50 47 44 40 36 33 30 30 33 33 33 35 36 37 38 35 34 36 38 38 39 39 40 40 39 39 39
68 68 68 68 67 66 67 67 68 65 63 63 62 60 56 54 53 51 47 41 36 32 29 29 32 34 35 36 38 39 40 37 38 37 39 40 39 36 37 37 36 35 35
67 69 69 69 68 68 70 69 68 65 64 63 62 58 55 55 57 55 50 44 39 34 29 26 25 26 29 32 33 34 35 35 36 35 36 37 34 31 30 32 30 30 29
69 69 70 71 71 71 71 70 67 65 65 64 60 56 57 59 60 59 55 51 46 39 32 27 23 22 23 23 24 27 29 30 29 27 27 26 23 22 23 25 25 29 31
Wind_Direction_850mb
324 323 323 322 320 317 315 313 310 308 307 305 302 300 298 296 296 295 294 293 292 289 284 284 283 283 283 287 288 278 278 278 272 280 273 275 273 252 227 213 205 202 206
327 327 325 323 321 319 317 315 313 309 309 308 306 298 298 292 294 295 295 295 291 289 285 285 287 288 287 289 284 277 277 275 273 275 271 266 261 246 211 203 200 197 195
332 329 328 325 322 319 318 316 312 311 310 306 307 300 298 292 295 294 294 294 291 286 284 285 286 288 291 288 283 278 273 271 265 264 269 258 237 226 215 201 198 199 206
334 333 331 327 324 321 320 316 315 313 309 308 307 301 296 295 294 295 296 294 290 286 284 285 287 285 289 288 288 274 275 265 256 254 248 239 205 191 198 197 196 209 225
335 332 331 329 327 325 323 319 318 317 314 312 309 305 301 299 298 298 298 297 297 296 288 286 286 287 293 284 286 268 270 257 250 237 236 242 218 222 197 196 187 203 205
334 333 333 334 332 331 327 326 322 321 319 318 316 313 310 306 302 305 304 300 297 294 292 293 294 297 298 294 277 261 260 248 241 228 226 230 233 230 225 227 229 230 226
337 338 338 335 334 332 332 332 332 326 324 324 320 317 319 314 310 311 309 305 303 298 294 298 303 309 304 303 254 255 242 244 242 227 219 215 215 224 229 213 198 206 205
340 340 339 337 335 336 337 337 337 330 325 330 323 322 329 325 319 320 318 314 309 300 307 310 306 318 300 312 253 235 235 223 223 231 229 228 214 206 218 214 204 196 212
340 341 341 340 339 341 342 343 336 331 332 330 331 341 343 340 329 325 325 322 323 328 319 318 322 321 307 332 230 218 225 233 241 229 206 204 207 216 222 212 205 196 194
339 340 342 343 343 344 346 345 343 335 335 333 342 350 348 345 336 330 329 331 330 331 335 321 316 327 309 310 194 209 209 210 222 231 230 229 227 225 227 233 209 191 197
338 341 343 345 345 345 342 346 341 341 342 351 346 350 347 342 339 335 335 337 335 336 334 331 324 321 334 275 256 249 236 223 217 210 198 200 193 196 196 193 197 202 222
341 342 344 348 347 343 344 344 343 337 337 340 340 341 343 345 341 342 344 343 346 336 337 337 323 317 323 271 256 228 197 202 195 184 186 201 209 214 223 230 237 243 250
341 344 346 348 349 347 347 345 342 340 335 337 339 339 340 346 351 353 351 343 341 353 343 339 336 324 305 275 232 214 190 185 175 178 189 194 198 216 233 243 248 248 246
343 345 345 345 346 348 348 350 343 337 333 337 333 333 334 341 345 348 340 343 338 339 331 342 348 339 323 130 164 181 167 171 167 168 180 206 233 248 250 245 245 247 249
345 344 343 343 344 345 345 346 346 346 331 324 326 327 329 330 334 333 333 343 343 339 332 340 346 22 70 105 120 131 135 137 139 146 165 218 263 273 272 269 264 265 264
344 343 343 342 342 343 343 342 349 347 346 335 325 324 322 323 326 331 331 331 333 329 338 339 343 357 33 66 94 105 125 135 146 199 264 273 273 270 267 270 270 268 269
343 343 341 342 340 341 341 341 340 346 351 352 345 332 331 325 329 331 333 330 338 337 337 337 344 344 338 342 359 354 288 280 282 283 283 281 278 277 275 273 273 276 276
346 346 343 340 340 341 340 341 342 342 343 346 351 343 335 334 334 332 336 330 336 342 342 341 340 337 333 322 307 296 291 289 287 284 279 278 278 277 277 277 277 277 277
347 346 342 341 342 341 343 342 343 342 342 343 346 350 354 354 340 333 337 340 338 335 331 329 325 322 318 311 302 295 291 288 286 285 281 279 277 276 278 279 279 282 285
347 348 346 345 344 345 345 344 343 343 343 344 347 346 351 345 330 338 339 335 334 328 322 317 313 310 307 302 294 288 286 286 286 285 283 283 282 281 283 284 284 286 286
349 350 347 349 348 346 345 345 344 345 345 346 348 347 334 326 335 339 336 330 324 322 317 310 304 299 295 294 293 291 288 287 286 285 284 283 283 283 283 283 284 285 287
352 351 352 351 349 347 347 347 348 348 349 348 350 352 349 348 343 340 338 333 326 319 312 303 299 295 291 288 285 284 284 285 285 284 283 284 283 284 284 283 284 284 284
356 355 353 351 350 350 350 351 351 351 352 351 351 351 352 350 348 346 341 337 330 322 313 303 295 290 285 282 280 280 281 282 282 282 284 283 282 281 280 281 281 281 282
359 356 354 353 353 352 353 353 355 354 354 353 352 352 352 352 352 352 349 344 338 330 320 306 295 289 284 279 277 276 278 279 278 279 281 281 282 280 277 275 278 281 282
360 358 357 356 355 356 357 356 355 355 355 355 354 355 355 355 356 356 355 352 348 343 337 324 309 295 285 280 278 276 275 275 277 278 277 277 277 274 272 275 279 280 279
3 360 359 360 360 360 357 356 358 358 357 357 359 359 357 356 357 360 1 0 357 354 348 341 331 314 302 292 282 277 276 275 274 273 272 271 270 271 274 278 280 282 287